Location: Coopersdale
(40.3556°N, 78.9372°W)
Time: 03:30:50
(UTC+00:00)

Tiros 1 despin weight - Pass Details

Date: 25 June 2021
Orbit: 593 x 642 km, 48.2° (Epoch: 02 August)

Event Time Altitude Azimuth Distance (km) Brightness Sun altitude
Exits shadow 06:52:37 10° 121° (ESE) 1,932 ? -22.6°
Drops below altitude 10° 06:52:40 10° 120° (ESE) 1,936 ? -22.6°
Sets 06:57:03 0° 79° (E) 2,833 ? -22.3°
